Temp
74 79 82 78 63 62 58 59 68 64 65 70 70 69 70 69 67 62 77 80 80 80 81 81 74 76 75 75 75 75 75 76 76 76 76 76 77 76 76 76 76 76 77 77 77 77 77 77 76
78 76 79 74 58 52 57 65 62 67 69 71 70 69 69 65 71 72 76 78 79 80 81 82 73 75 75 75 74 74 75 76 76 76 76 76 76 76 76 76 76 76 77 78 78 77 77 76 75
74 76 72 65 59 53 56 64 68 68 70 70 68 70 68 64 71 73 78 78 79 79 80 79 72 74 75 75 74 74 75 75 76 76 76 76 76 76 76 76 75 75 76 77 78 78 77 75 75
76 75 72 58 54 60 61 65 68 67 69 71 70 66 69 73 72 75 77 78 79 77 79 75 71 73 74 75 75 74 74 74 75 75 76 76 76 75 75 75 75 75 75 77 78 78 76 74 74
77 73 59 55 57 61 65 65 66 66 67 69 69 65 66 71 75 76 76 73 72 70 73 72 69 70 71 71 72 74 74 74 74 74 75 75 75 75 75 74 75 74 75 76 77 76 75 74 73
68 70 56 52 57 62 65 65 65 66 67 68 68 68 66 73 73 74 77 77 77 74 74 71 66 67 68 69 69 70 71 72 73 73 73 74 74 74 74 74 74 74 74 75 75 75 74 73 73
65 62 57 56 56 58 63 64 64 66 66 65 68 65 67 71 72 74 75 77 76 75 73 73 74 71 66 66 66 67 68 68 68 70 71 71 71 71 72 72 73 73 74 73 74 74 73 73 73
69 65 54 57 57 56 61 63 64 65 64 68 69 65 65 71 72 75 75 76 76 74 73 72 72 72 73 73 62 65 65 65 65 64 64 64 66 67 68 67 69 72 72 72 72 72 72 72 72
66 58 54 55 55 59 61 61 64 64 64 65 67 68 69 69 71 73 73 73 74 72 72 72 71 71 71 71 68 66 64 63 63 63 61 63 66 68 68 68 68 70 71 71 72 71 71 70 68
63 57 57 60 61 59 60 60 62 62 62 63 64 66 66 68 68 68 69 71 70 71 71 71 70 69 70 72 70 70 71 70 69 67 66 64 62 62 64 63 63 65 66 70 71 71 69 66 78
58 57 59 59 59 59 58 58 61 60 60 66 64 64 64 65 66 67 68 69 69 70 71 70 68 69 68 68 69 70 70 69 68 68 67 66 63 64 64 66 66 65 62 68 71 72 74 74 77
54 56 57 56 57 56 56 58 58 58 63 63 62 62 62 64 65 66 67 68 68 68 68 68 69 67 66 68 68 69 68 68 69 68 67 66 65 65 62 59 58 64 65 64 67 71 73 74 75
55 55 56 55 54 55 54 56 56 57 63 63 61 59 62 62 63 66 67 66 66 66 66 66 67 66 66 65 67 67 67 67 67 68 67 67 66 64 65 62 60 57 58 64 64 64 67 72 74
57 55 54 54 53 53 51 54 52 58 58 58 58 61 62 62 63 62 64 65 64 64 64 64 64 65 65 64 63 64 65 65 66 66 66 66 66 65 64 64 61 60 56 55 56 63 64 65 69
53 51 52 52 52 52 50 51 49 60 56 57 58 61 61 60 60 61 63 62 64 63 63 62 63 64 63 63 62 62 63 62 62 63 64 64 65 65 64 63 63 61 60 58 55 55 63 63 64
51 51 49 49 49 50 51 54 55 55 56 58 58 59 57 57 58 60 61 62 63 62 60 61 61 61 60 60 60 60 60 60 60 61 62 61 62 63 63 63 62 63 61 60 57 54 53 61 62
48 50 47 47 47 47 48 53 54 54 55 57 60 60 57 56 57 59 60 61 61 60 61 60 60 58 57 57 57 57 56 56 57 59 59 59 59 59 60 61 62 61 62 60 60 57 55 54 60
48 47 45 48 45 45 47 48 56 56 53 56 59 58 56 57 57 58 59 59 60 59 59 59 58 57 55 55 55 55 55 55 55 54 55 54 56 57 57 58 59 60 59 60 60 57 56 55 54
48 46 46 45 43 42 47 46 52 57 54 52 56 56 56 56 58 59 58 59 58 58 57 56 55 55 54 52 51 51 50 51 51 53 52 52 52 53 53 55 56 57 57 59 59 58 55 53 52
45 44 45 44 42 42 45 45 53 50 50 51 54 56 56 55 56 57 57 57 56 55 55 54 54 53 52 51 49 49 48 49 49 49 49 49 50 50 51 51 52 54 54 56 57 57 56 55 56
43 44 41 41 42 40 41 48 48 49 49 50 54 57 56 55 55 56 55 55 55 54 53 52 51 50 50 48 48 47 48 48 47 48 48 48 48 48 49 50 51 51 52 52 54 55 55 53 55
40 42 41 38 42 40 41 38 50 47 49 49 50 52 53 54 53 53 53 53 53 52 51 51 49 48 48 47 45 43 41 41 45 45 46 45 46 46 47 47 48 48 49 49 51 54 54 55 52
39 41 39 38 38 35 37 36 51 44 48 51 52 52 54 54 53 52 51 50 51 50 49 48 47 46 46 45 44 42 41 42 43 43 42 43 44 45 45 45 45 46 48 49 49 50 52 54 54
40 38 37 37 36 31 34 36 49 50 50 50 53 54 54 53 53 51 50 49 50 49 48 46 45 44 44 43 42 41 39 39 39 39 39 40 42 43 43 43 44 45 45 46 47 48 50 51 53
39 36 33 31 30 33 32 32 46 50 49 51 52 53 54 53 52 51 50 49 47 46 45 44 43 41 42 41 40 40 39 38 36 36 36 37 38 39 40 41 42 43 44 45 45 45 47 46 47
37 35 34 31 32 34 31 30 47 48 47 48 48 50 52 51 51 49 48 46 45 44 43 42 41 40 40 40 39 39 39 38 37 37 37 37 37 38 40 40 41 42 43 43 45 44 44 47 46
33 31 36 24 16 27 36 39 47 47 48 48 48 48 49 50 50 48 46 45 44 43 41 40 39 39 39 38 38 38 38 37 36 36 37 37 38 39 40 40 39 40 40 41 42 43 42 45 47
35 37 31 30 28 27 33 30 41 46 49 47 45 48 50 51 48 46 45 44 43 42 41 40 39 38 38 38 38 37 36 36 36 36 35 36 37 37 38 38 38 38 39 39 40 41 41 39 40
31 31 29 33 32 32 30 38 43 50 50 44 49 50 50 49 49 46 45 43 42 41 40 38 38 36 36 37 37 35 36 36 36 35 35 35 35 35 35 36 36 35 37 38 38 40 40 38 39
36 35 34 34 27 27 27 34 43 50 49 47 47 47 48 47 48 45 42 41 40 39 37 35 35 35 36 37 36 35 36 35 34 32 33 34 33 34 33 34 34 34 35 37 37 37 38 37 38
MSLP
1013.88 1013.57 1013.22 1012.41 1011.97 1010.97 1009.82 1010.04 1010.00 1009.93 1010.12 1010.41 1010.57 1010.41 1009.86 1010.23 1010.16 1010.85 1011.91 1012.22 1012.11 1011.69 1011.64 1011.89 1012.39 1012.51 1012.70 1012.97 1013.18 1013.35 1013.44 1013.48 1013.62 1013.67 1013.72 1013.80 1013.84 1013.92 1014.05 1014.22 1014.36 1014.45 1014.49 1014.62 1014.67 1014.82 1014.98 1015.19 1015.40
1013.70 1013.46 1012.79 1012.11 1011.30 1010.31 1009.64 1009.98 1009.85 1009.90 1010.34 1010.73 1010.88 1010.72 1010.49 1010.92 1011.62 1011.79 1011.88 1012.33 1012.19 1011.85 1011.81 1011.91 1012.45 1012.64 1012.81 1013.08 1013.23 1013.42 1013.59 1013.64 1013.71 1013.75 1013.84 1013.91 1014.03 1014.09 1014.18 1014.19 1014.34 1014.42 1014.45 1014.47 1014.69 1014.86 1014.92 1015.21 1015.43
1013.75 1013.31 1012.15 1011.68 1010.90 1010.16 1009.79 1010.11 1009.69 1010.36 1010.70 1010.58 1010.83 1011.18 1011.33 1012.01 1012.48 1012.60 1012.81 1012.68 1012.16 1012.10 1012.11 1012.34 1012.82 1012.88 1012.99 1013.13 1013.28 1013.38 1013.58 1013.66 1013.74 1013.79 1013.85 1013.98 1014.11 1014.19 1014.22 1014.30 1014.37 1014.47 1014.42 1014.40 1014.49 1014.69 1014.84 1014.98 1015.26
1013.26 1012.89 1012.73 1011.97 1010.89 1010.82 1010.70 1010.46 1010.45 1010.48 1010.76 1010.88 1010.89 1011.18 1012.23 1012.99 1013.00 1013.41 1013.34 1012.83 1012.51 1012.59 1012.55 1012.98 1013.22 1013.21 1013.16 1013.20 1013.26 1013.31 1013.51 1013.56 1013.58 1013.67 1013.71 1013.80 1013.93 1014.01 1014.18 1014.19 1014.26 1014.32 1014.47 1014.43 1014.29 1014.35 1014.68 1015.01 1015.05
1013.10 1012.37 1011.75 1011.52 1011.04 1011.13 1011.16 1011.22 1011.17 1010.75 1010.81 1010.86 1011.11 1011.43 1012.26 1013.23 1013.63 1013.62 1013.35 1013.43 1013.25 1013.50 1013.46 1013.47 1013.58 1013.46 1013.43 1013.45 1013.40 1013.32 1013.37 1013.49 1013.58 1013.58 1013.63 1013.68 1013.79 1013.90 1013.92 1013.91 1013.98 1014.16 1014.17 1014.16 1014.16 1014.20 1014.54 1014.89 1014.99
1012.28 1012.10 1011.50 1010.94 1010.94 1011.25 1011.33 1011.63 1011.48 1011.17 1011.26 1011.30 1011.29 1011.55 1012.48 1013.45 1013.63 1013.78 1013.68 1013.54 1013.56 1013.77 1013.78 1013.77 1013.84 1013.89 1013.83 1013.76 1013.64 1013.52 1013.57 1013.49 1013.42 1013.41 1013.54 1013.55 1013.63 1013.68 1013.74 1013.76 1013.80 1013.88 1014.04 1014.05 1013.99 1014.19 1014.40 1014.61 1014.85
1011.72 1011.80 1011.12 1011.08 1011.03 1011.12 1011.34 1012.12 1011.69 1011.46 1011.50 1011.70 1011.93 1011.62 1012.71 1013.24 1013.85 1013.94 1013.83 1013.81 1013.90 1014.05 1014.09 1014.14 1013.95 1013.84 1014.07 1014.10 1013.97 1013.78 1013.77 1013.75 1013.60 1013.54 1013.49 1013.44 1013.48 1013.59 1013.62 1013.60 1013.72 1013.80 1013.87 1014.02 1013.97 1013.88 1014.19 1014.40 1014.52
1012.23 1012.00 1011.59 1011.30 1010.92 1011.11 1012.04 1012.20 1012.31 1012.13 1011.89 1012.37 1012.31 1011.78 1012.35 1013.22 1013.93 1013.82 1013.81 1013.87 1014.02 1014.24 1014.27 1014.42 1014.40 1014.20 1014.19 1014.18 1014.28 1014.13 1014.00 1013.89 1013.76 1013.71 1013.73 1013.56 1013.50 1013.38 1013.34 1013.37 1013.45 1013.44 1013.60 1013.70 1013.80 1013.85 1014.06 1014.33 1014.42
1012.94 1012.16 1011.33 1011.43 1011.63 1011.46 1012.39 1012.36 1012.75 1013.01 1012.54 1012.55 1012.58 1012.62 1013.26 1013.80 1013.87 1013.59 1013.62 1013.79 1013.99 1014.32 1014.50 1014.60 1014.56 1014.51 1014.53 1014.47 1014.56 1014.27 1014.28 1014.17 1014.07 1013.89 1013.82 1013.61 1013.27 1013.10 1013.12 1012.92 1013.06 1013.00 1013.03 1013.30 1013.43 1013.66 1013.90 1014.06 1014.31
1012.53 1012.08 1011.72 1012.18 1012.30 1012.40 1012.86 1012.98 1012.94 1012.95 1012.72 1012.58 1012.85 1013.37 1013.82 1013.92 1013.86 1013.72 1013.71 1013.79 1014.13 1014.29 1014.63 1014.78 1014.75 1014.83 1014.85 1014.71 1014.67 1014.47 1014.29 1014.15 1014.13 1014.19 1014.21 1014.11 1013.68 1012.96 1012.78 1012.67 1012.79 1013.00 1012.82 1012.69 1012.96 1013.21 1013.40 1013.88 1013.75
1012.99 1012.27 1012.69 1012.95 1013.24 1013.42 1013.42 1013.40 1013.39 1012.96 1012.45 1012.29 1012.73 1013.36 1013.81 1013.94 1013.91 1013.93 1014.01 1014.08 1014.22 1014.40 1014.45 1014.73 1014.90 1015.05 1015.19 1015.18 1015.05 1014.79 1014.57 1014.46 1014.35 1014.13 1014.06 1013.93 1013.69 1013.32 1013.39 1012.55 1011.96 1012.53 1012.50 1012.74 1012.66 1012.89 1013.10 1013.21 1012.94
1013.32 1013.40 1013.49 1013.77 1014.00 1014.11 1013.98 1013.96 1013.50 1013.27 1012.68 1013.25 1013.59 1013.91 1014.01 1013.88 1013.88 1013.95 1013.95 1013.99 1014.26 1014.48 1014.72 1014.99 1015.10 1015.18 1015.36 1015.26 1015.11 1015.03 1014.83 1014.72 1014.40 1014.26 1014.03 1013.78 1013.64 1013.47 1013.24 1013.05 1013.10 1012.07 1011.91 1012.12 1012.14 1012.11 1012.34 1012.46 1012.42
1013.50 1013.69 1014.10 1014.42 1014.61 1014.57 1014.67 1014.11 1013.84 1013.07 1013.07 1013.50 1013.86 1014.12 1013.99 1014.05 1014.11 1014.13 1014.24 1014.46 1014.65 1014.72 1014.95 1015.07 1015.07 1015.12 1015.13 1015.11 1015.02 1014.92 1014.82 1014.66 1014.59 1014.29 1014.09 1013.75 1013.46 1013.27 1013.03 1012.96 1012.88 1012.98 1012.57 1012.18 1011.86 1011.95 1011.80 1011.89 1011.83
1013.58 1014.02 1014.38 1014.74 1014.81 1014.94 1014.81 1014.21 1014.20 1012.94 1013.39 1013.41 1013.76 1013.82 1014.01 1014.13 1014.30 1014.41 1014.45 1014.39 1014.54 1014.79 1014.93 1015.09 1015.16 1015.18 1015.17 1015.22 1015.26 1015.07 1014.79 1014.53 1014.36 1014.16 1013.94 1013.66 1013.25 1012.92 1012.76 1012.62 1012.63 1012.47 1012.59 1012.78 1012.70 1012.07 1011.41 1011.39 1011.37
1014.28 1014.24 1014.52 1014.68 1014.96 1014.99 1015.09 1013.99 1013.21 1012.84 1013.46 1013.32 1013.46 1013.60 1013.83 1014.02 1014.29 1014.21 1014.24 1014.41 1014.54 1014.88 1015.17 1015.27 1015.21 1015.24 1015.31 1015.27 1015.18 1014.94 1014.72 1014.63 1014.20 1013.88 1013.65 1013.45 1013.02 1012.57 1012.32 1012.20 1011.99 1011.95 1011.97 1011.92 1012.09 1011.98 1011.25 1010.77 1010.97
1014.20 1014.12 1013.89 1014.52 1014.94 1015.13 1014.98 1012.52 1012.65 1013.10 1013.25 1012.97 1013.13 1013.24 1013.65 1013.97 1014.23 1014.40 1014.46 1014.69 1014.91 1015.09 1015.21 1015.32 1015.38 1015.35 1015.41 1015.38 1015.31 1015.07 1014.82 1014.48 1014.00 1013.69 1013.25 1012.92 1012.76 1012.41 1012.01 1011.69 1011.52 1011.25 1011.32 1011.26 1011.45 1011.31 1011.01 1010.04 1009.80
1013.85 1012.81 1013.38 1014.27 1015.13 1015.04 1014.69 1012.59 1012.43 1013.01 1013.11 1012.69 1012.56 1012.83 1013.33 1013.87 1014.31 1014.55 1014.76 1014.92 1015.12 1015.19 1015.21 1015.23 1015.34 1015.32 1015.42 1015.44 1015.35 1015.00 1014.74 1014.53 1014.04 1013.48 1013.16 1012.64 1012.47 1012.27 1011.74 1011.27 1010.92 1010.93 1010.72 1010.49 1010.57 1010.61 1010.39 1010.73 1009.48
1012.36 1012.69 1013.31 1013.74 1015.05 1015.01 1014.19 1012.46 1012.09 1012.39 1012.61 1012.19 1012.11 1012.53 1013.01 1013.49 1014.02 1014.53 1014.80 1015.11 1015.19 1015.24 1015.32 1015.37 1015.37 1015.46 1015.62 1015.36 1015.01 1014.57 1014.35 1014.01 1013.74 1013.49 1013.26 1012.90 1012.45 1012.09 1011.61 1011.04 1010.74 1010.57 1010.24 1009.94 1009.82 1009.89 1009.99 1009.96 1009.88
1012.74 1012.80 1013.15 1014.10 1015.11 1014.94 1013.38 1012.19 1011.39 1011.42 1011.66 1011.76 1011.64 1012.10 1012.49 1013.12 1013.92 1014.41 1014.80 1014.96 1015.06 1015.09 1015.26 1015.38 1015.48 1015.47 1015.30 1015.05 1014.71 1014.23 1013.89 1013.76 1013.52 1013.35 1013.09 1012.77 1012.40 1012.05 1011.54 1010.92 1010.51 1010.22 1009.70 1009.33 1009.17 1009.21 1009.29 1009.32 1009.38
1013.40 1013.36 1013.63 1014.47 1015.15 1014.94 1013.38 1011.32 1010.38 1010.75 1010.85 1011.02 1011.01 1011.32 1012.01 1012.88 1013.58 1014.08 1014.49 1014.84 1014.95 1015.18 1015.18 1015.27 1015.25 1015.32 1015.28 1015.19 1014.97 1014.69 1014.10 1013.67 1013.35 1013.17 1012.89 1012.61 1012.15 1011.75 1011.28 1010.79 1010.33 1009.96 1009.52 1009.05 1008.76 1008.53 1008.53 1008.37 1008.91
1014.13 1014.04 1014.33 1014.82 1014.88 1014.92 1013.75 1010.92 1010.00 1010.33 1010.64 1010.96 1010.86 1011.10 1011.88 1012.42 1013.07 1013.79 1014.30 1014.56 1014.79 1014.85 1015.07 1015.24 1015.34 1015.38 1015.28 1015.17 1014.78 1014.33 1013.83 1013.19 1012.75 1012.36 1012.14 1011.89 1011.66 1011.40 1010.97 1010.53 1010.06 1009.58 1009.33 1008.95 1008.65 1008.30 1007.92 1007.58 1007.92
1014.99 1015.15 1015.20 1015.25 1014.96 1014.51 1014.15 1011.64 1009.51 1009.70 1010.03 1010.45 1010.69 1011.19 1011.77 1012.49 1013.34 1013.80 1014.05 1014.35 1014.65 1015.04 1015.24 1015.20 1015.24 1015.20 1015.11 1015.01 1014.56 1014.12 1013.67 1012.93 1012.46 1012.17 1011.83 1011.50 1011.23 1010.91 1010.67 1010.34 1009.85 1009.35 1009.01 1008.62 1008.28 1008.07 1007.54 1007.18 1006.65
1015.86 1016.10 1015.88 1015.79 1015.42 1015.22 1014.17 1013.22 1009.05 1009.59 1009.22 1009.36 1009.93 1010.79 1011.49 1012.28 1013.07 1013.52 1014.01 1014.39 1014.74 1014.96 1014.99 1015.17 1015.18 1015.04 1014.88 1014.69 1014.37 1013.84 1013.31 1012.89 1012.44 1012.03 1011.52 1011.09 1010.63 1010.33 1010.13 1009.91 1009.50 1009.04 1008.54 1008.09 1007.78 1007.43 1006.84 1006.49 1006.14
1016.64 1016.55 1016.39 1016.11 1015.59 1014.97 1013.91 1013.10 1008.95 1008.43 1008.34 1008.80 1009.56 1010.39 1011.16 1012.05 1012.81 1013.29 1013.77 1014.27 1014.50 1014.85 1015.11 1015.22 1015.06 1014.81 1014.63 1014.37 1013.98 1013.54 1013.05 1012.61 1012.18 1011.65 1011.19 1010.61 1010.06 1009.60 1009.32 1009.03 1008.71 1008.54 1008.21 1007.71 1007.34 1006.95 1006.34 1005.88 1005.48
1016.96 1016.56 1016.30 1016.17 1015.61 1014.45 1014.18 1013.27 1009.07 1008.53 1008.75 1009.05 1009.60 1010.06 1010.78 1011.73 1012.53 1013.11 1013.65 1014.20 1014.53 1014.78 1015.04 1015.07 1014.95 1014.63 1014.39 1014.02 1013.58 1013.19 1012.77 1012.38 1011.85 1011.35 1010.83 1010.27 1009.60 1009.04 1008.53 1008.31 1008.01 1007.66 1007.37 1007.03 1006.83 1006.42 1005.83 1005.48 1004.93
1016.79 1016.54 1015.78 1015.40 1015.40 1014.48 1014.22 1011.77 1008.60 1008.71 1009.07 1009.53 1010.11 1010.36 1010.79 1011.59 1012.37 1013.07 1013.70 1014.17 1014.48 1014.76 1014.93 1014.82 1014.70 1014.34 1014.10 1013.69 1013.18 1012.83 1012.40 1011.83 1011.34 1010.84 1010.27 1009.61 1008.99 1008.36 1007.97 1007.55 1007.15 1006.68 1006.35 1006.14 1005.88 1005.64 1005.29 1004.71 1004.25
1017.12 1017.04 1016.37 1015.98 1017.15 1015.06 1012.22 1010.57 1008.68 1008.60 1008.81 1009.35 1009.81 1010.21 1010.72 1011.32 1012.14 1013.00 1013.60 1014.05 1014.45 1014.60 1014.66 1014.77 1014.56 1014.18 1013.83 1013.36 1012.82 1012.29 1011.86 1011.39 1010.82 1010.21 1009.59 1008.84 1008.16 1007.51 1007.03 1006.59 1006.08 1005.58 1005.28 1005.12 1005.01 1004.50 1004.26 1003.93 1003.35
1016.85 1017.06 1016.75 1016.01 1015.39 1014.05 1011.89 1010.61 1008.51 1008.13 1008.23 1008.82 1009.39 1009.81 1010.35 1011.09 1011.89 1012.73 1013.43 1013.95 1014.21 1014.39 1014.62 1014.68 1014.46 1014.04 1013.52 1013.06 1012.54 1012.07 1011.50 1010.98 1010.36 1009.65 1008.83 1008.21 1007.53 1006.89 1006.23 1005.53 1005.09 1004.63 1004.23 1003.91 1003.73 1003.34 1003.24 1003.24 1002.68
1017.08 1016.80 1016.41 1015.71 1014.76 1013.48 1011.94 1009.19 1007.44 1007.33 1007.74 1008.56 1008.99 1009.53 1010.12 1010.75 1011.40 1012.36 1013.14 1013.62 1013.97 1014.22 1014.53 1014.57 1014.34 1013.86 1013.32 1012.74 1012.22 1011.65 1010.94 1010.37 1009.72 1009.10 1008.35 1007.61 1006.86 1006.23 1005.46 1004.71 1004.00 1003.52 1002.88 1002.44 1002.42 1002.23 1002.18 1002.12 1001.99
1015.80 1015.51 1015.13 1014.89 1015.02 1014.20 1012.63 1009.11 1007.45 1007.54 1008.05 1008.71 1009.24 1009.78 1010.21 1010.72 1011.33 1012.20 1012.89 1013.38 1013.73 1014.07 1014.40 1014.45 1014.28 1013.69 1013.13 1012.58 1011.98 1011.31 1010.67 1010.08 1009.31 1008.68 1007.94 1007.06 1006.15 1005.40 1004.71 1003.80 1002.94 1002.32 1001.82 1001.39 1001.30 1001.21 1001.24 1001.33 1001.13
Wind_Speed
4 3 3 5 6 6 11 8 1 5 4 2 0 4 3 7 6 4 3 9 11 6 2 8 5 8 9 8 8 8 7 7 7 7 9 10 10 11 10 10 9 9 9 9 10 12 13 12 13
3 3 3 1 7 9 8 7 9 4 2 2 0 2 1 6 4 3 1 14 10 6 3 5 6 4 6 8 9 9 9 8 8 9 8 8 9 11 12 12 11 12 12 11 11 13 14 13 14
3 2 4 4 7 10 5 9 6 5 2 4 3 3 3 4 4 4 9 11 5 6 4 3 1 4 6 7 9 10 11 11 11 11 11 12 12 12 12 12 12 13 14 15 15 15 15 14 15
4 4 3 7 9 9 6 4 3 4 3 2 2 6 5 5 3 8 9 8 6 7 6 7 6 7 8 6 8 10 11 12 13 13 13 13 14 13 13 13 13 14 15 16 17 16 15 14 16
3 3 6 9 11 5 7 1 1 4 2 2 1 5 5 4 2 6 8 9 10 11 10 11 11 11 8 9 9 7 11 12 13 14 14 13 13 14 14 15 15 15 15 16 16 13 14 14 14
5 2 7 11 10 7 4 2 3 4 2 3 3 5 5 5 3 5 7 10 10 9 9 8 9 11 11 9 8 10 12 10 13 14 15 14 14 14 15 16 17 17 17 18 17 17 14 14 13
7 6 9 8 4 8 5 1 5 4 4 3 1 3 5 6 5 2 4 7 8 8 8 8 8 8 9 10 9 8 9 11 12 11 12 14 13 13 14 14 15 17 18 19 17 16 15 16 15
4 4 5 6 7 5 4 3 2 4 3 1 1 4 4 6 3 2 3 4 7 8 8 8 8 8 7 7 11 11 10 12 14 18 14 9 10 12 11 12 13 17 18 19 17 14 15 13 13
2 7 8 5 6 2 3 5 3 1 3 2 2 1 5 4 3 2 1 3 3 5 7 7 7 7 7 7 7 6 9 10 9 8 10 11 4 6 9 11 14 15 19 20 19 18 17 14 12
8 8 9 1 2 1 2 3 2 4 5 6 5 3 2 3 3 2 1 1 2 3 6 6 8 8 7 5 7 7 7 7 7 6 6 2 4 6 9 9 11 11 14 20 20 20 18 14 12
4 7 5 4 2 1 2 4 2 4 8 7 5 6 2 3 1 2 1 1 3 3 5 7 6 7 7 6 4 4 4 4 4 6 6 6 3 3 4 4 6 4 7 8 13 13 12 15 12
5 4 3 2 2 2 3 2 4 6 3 3 3 1 3 3 1 2 3 3 1 2 3 5 6 6 6 5 5 5 4 5 4 5 6 5 4 5 3 2 5 4 4 6 9 8 13 16 17
9 4 4 2 2 4 3 8 8 11 9 7 4 3 5 3 4 6 6 4 3 3 2 4 5 5 5 5 4 5 6 5 7 6 6 5 5 5 5 4 3 3 4 6 8 7 10 14 16
4 5 2 2 2 1 4 4 2 2 1 5 9 7 5 7 9 8 8 6 4 4 3 3 4 4 6 6 7 6 6 7 7 7 8 10 7 7 6 6 4 4 3 5 6 10 10 10 12
4 6 3 3 2 2 2 9 11 7 3 7 7 4 6 6 5 7 5 4 4 5 3 4 5 6 7 8 8 8 7 8 8 9 11 12 11 10 10 8 7 6 6 7 4 8 12 11 11
4 3 6 5 1 2 4 5 3 5 9 10 7 3 3 3 2 2 5 7 5 4 4 4 5 7 8 9 9 8 9 9 10 10 10 13 13 13 12 10 9 8 6 7 6 6 8 11 13
5 4 7 4 1 1 6 6 2 8 8 11 12 8 3 5 6 6 6 5 4 4 5 6 7 8 10 10 10 10 11 10 10 10 11 13 13 14 13 12 11 11 9 9 8 7 6 9 9
6 6 4 4 4 4 9 19 13 11 12 14 13 8 7 9 9 7 5 3 2 4 6 7 6 8 9 9 9 9 9 9 9 9 10 13 11 13 12 12 13 12 10 10 10 11 8 9 10
1 2 2 2 3 5 8 16 16 13 15 17 16 11 11 12 10 8 3 1 2 4 7 8 9 9 9 9 9 9 9 10 9 9 13 13 12 13 13 11 12 12 13 14 14 12 12 9 7
3 2 3 2 2 4 7 21 15 5 7 11 15 14 14 14 12 9 4 0 5 6 7 9 10 12 10 8 8 9 9 9 10 10 12 13 13 13 12 12 12 13 12 15 15 15 11 10 7
2 3 2 1 5 1 9 9 4 3 3 5 8 10 12 14 12 8 3 3 6 7 8 8 11 12 10 11 9 8 9 9 10 10 9 10 12 13 14 14 13 13 12 12 14 15 18 13 10
4 3 5 2 4 3 4 7 4 3 5 7 9 12 13 12 7 4 2 4 6 7 7 9 11 12 10 12 10 12 11 12 10 11 11 11 13 14 14 15 15 15 12 14 13 13 15 14 14
2 3 4 2 1 4 4 3 4 2 8 12 12 12 13 11 6 3 3 4 6 7 8 9 11 12 12 12 11 10 12 11 11 11 15 14 13 14 14 15 15 15 12 14 16 16 16 14 14
12 4 3 2 1 4 4 3 5 5 2 4 7 13 13 12 7 3 2 4 6 7 8 10 11 13 12 12 12 13 14 14 12 13 12 12 11 11 14 14 14 15 15 15 14 15 18 16 15
2 3 1 3 2 3 3 4 11 3 3 2 4 8 13 11 7 4 5 5 6 8 10 10 11 13 12 12 12 13 14 15 16 14 11 15 10 10 13 14 14 13 15 16 14 14 17 16 13
7 3 3 5 3 1 2 8 3 1 1 4 5 3 8 11 6 5 4 5 6 8 9 11 12 13 13 13 14 12 13 10 10 12 12 10 11 11 13 14 15 17 16 15 16 12 13 16 15
6 6 2 7 2 2 3 6 13 7 12 11 9 7 11 12 6 5 4 4 6 7 9 11 12 12 13 13 12 13 13 14 13 15 13 11 14 12 14 15 17 17 17 17 16 13 14 16 15
2 5 4 1 5 5 4 6 5 6 9 8 9 13 12 12 9 4 5 5 5 5 7 10 10 12 13 12 11 12 14 14 15 14 14 14 15 16 16 16 17 16 18 17 16 16 14 15 10
5 4 0 0 2 3 2 5 6 7 7 7 7 8 9 12 12 5 5 4 5 5 7 9 10 11 12 12 13 13 14 14 14 14 15 16 15 16 18 17 16 17 19 16 15 17 16 16 15
2 4 7 4 6 0 2 8 3 6 5 4 6 7 8 9 10 6 5 5 5 6 7 8 9 10 11 12 13 14 14 15 14 14 15 15 15 15 16 18 16 15 17 15 16 17 13 17 16
Wind_Direction
300 297 219 213 231 245 232 211 269 198 198 46 335 261 357 26 354 31 17 13 353 346 237 185 204 179 171 170 168 167 174 176 178 174 178 181 188 183 187 194 199 203 198 192 185 178 175 173 168
292 204 211 174 249 227 216 212 199 171 86 195 165 238 223 80 38 70 92 354 352 12 140 183 152 183 174 183 192 183 190 199 201 197 202 204 204 203 206 203 207 208 213 208 200 201 194 188 182
214 253 221 243 236 240 247 201 176 129 108 173 153 25 23 58 60 19 2 337 9 48 88 87 308 239 212 199 203 205 202 206 213 214 213 212 216 221 220 218 217 220 218 217 217 209 206 193 186
188 178 160 245 231 238 247 162 163 180 155 86 122 111 108 41 16 4 347 353 53 56 70 63 6 336 316 266 227 223 224 221 216 222 221 223 221 218 224 225 220 220 226 224 216 217 204 195 181
195 210 222 244 241 240 226 222 264 212 134 109 201 121 101 84 61 23 27 36 48 39 34 45 32 24 14 15 358 294 245 237 236 230 227 226 228 231 226 224 221 222 224 224 216 200 197 193 176
170 255 227 236 226 220 219 204 239 231 186 127 178 149 114 104 85 44 43 59 64 66 56 55 58 48 42 31 30 27 11 324 256 245 242 237 233 234 236 237 229 222 225 230 211 207 190 183 178
222 214 248 257 261 236 207 187 218 207 194 146 22 186 117 148 67 53 67 68 66 63 59 50 45 56 72 49 29 36 30 26 16 342 274 258 255 248 247 245 241 234 229 230 234 206 190 192 180
213 236 231 230 233 235 138 178 159 232 165 73 283 202 157 125 51 100 105 77 65 54 45 37 36 38 38 38 31 42 40 36 47 41 11 318 269 273 253 251 240 232 236 228 224 206 198 200 187
187 223 233 237 205 163 139 208 157 352 227 203 176 252 84 50 5 12 71 97 68 57 44 37 39 45 39 37 32 46 44 50 43 28 21 10 309 271 274 271 259 238 236 224 218 207 202 194 194
215 228 220 237 214 236 170 254 195 228 191 205 189 152 120 6 345 301 283 307 74 59 50 39 37 36 38 47 41 42 43 39 37 30 13 334 310 10 302 256 274 266 243 222 212 206 198 195 206
188 232 203 199 214 236 253 250 261 257 241 239 203 155 199 306 318 214 202 286 352 27 44 52 47 32 26 27 13 21 19 15 17 19 8 355 354 330 328 295 223 220 248 245 221 213 212 209 212
208 219 192 153 173 207 238 305 257 237 274 99 104 296 257 216 250 287 297 299 330 359 50 67 53 42 31 6 11 1 357 351 346 345 349 343 340 339 328 324 340 290 245 241 247 219 214 219 216
217 179 201 169 204 253 283 256 270 257 243 235 247 212 198 228 300 288 273 281 269 193 101 79 53 48 31 5 346 336 331 325 322 309 308 310 309 309 313 307 299 278 338 274 223 239 232 220 220
176 165 186 221 195 220 266 247 258 182 291 235 215 214 232 265 289 281 251 243 206 160 126 91 70 32 358 341 331 320 316 315 306 299 296 293 284 282 282 279 263 257 213 255 311 259 220 231 222
131 176 202 194 200 215 295 241 232 247 219 159 173 228 283 285 284 263 256 201 161 133 116 52 14 5 350 332 330 320 311 305 297 294 291 285 279 272 271 269 257 242 234 237 255 286 254 215 217
190 220 212 134 215 150 244 266 172 165 188 192 189 312 290 290 241 163 133 130 109 108 65 17 2 348 342 331 318 305 302 299 294 288 285 282 279 275 273 266 262 256 236 234 229 221 263 258 209
201 229 214 173 109 283 226 273 150 182 209 223 234 285 260 171 149 129 121 111 88 49 12 357 348 344 335 323 311 305 302 296 295 293 286 285 284 280 272 268 267 264 256 242 238 233 217 254 262
189 210 205 226 151 233 237 258 252 215 220 243 255 258 211 182 167 150 139 121 60 25 357 340 335 327 323 316 309 303 298 292 295 291 287 289 284 280 276 272 270 268 261 251 238 238 231 237 239
139 193 226 134 110 279 254 274 270 252 237 238 248 222 194 184 171 173 159 149 0 3 347 343 326 330 331 322 315 309 304 300 292 284 285 283 283 281 277 273 272 267 259 256 245 245 238 232 225
171 192 219 153 134 298 312 292 289 257 241 235 222 197 182 175 185 185 194 253 7 345 346 340 337 330 324 315 312 299 297 290 291 287 280 279 280 278 274 269 268 267 268 263 257 246 244 243 218
191 232 188 300 303 157 310 266 211 172 204 180 176 173 178 184 187 191 214 349 344 347 343 330 327 324 320 315 308 300 293 284 282 281 285 280 280 281 279 274 268 266 263 262 257 253 244 247 232
227 114 108 39 312 290 7 293 244 188 220 205 169 178 180 183 188 197 299 331 339 337 331 329 327 323 319 315 306 303 297 295 296 295 290 287 279 274 275 273 269 265 263 259 259 254 253 245 238
99 104 91 95 69 303 133 235 255 202 218 204 191 191 190 189 191 202 276 317 325 333 338 326 319 316 315 314 310 305 298 296 297 292 295 289 285 274 265 264 269 267 264 263 258 256 252 245 245
137 108 77 82 193 238 113 220 267 203 182 134 197 202 199 197 204 235 295 311 324 338 325 319 315 312 312 312 311 305 299 299 296 294 294 289 286 283 273 269 264 262 263 262 260 260 255 247 246
197 158 234 234 200 246 125 212 265 249 202 173 154 199 201 197 216 253 280 307 321 325 324 319 316 312 319 315 309 305 299 295 291 293 289 289 282 277 271 268 262 255 260 261 259 259 255 252 255
184 234 219 235 218 24 133 234 240 302 344 248 262 251 200 201 212 261 281 296 307 311 315 321 317 317 320 315 312 308 301 297 290 283 284 282 279 277 278 271 260 258 251 252 256 250 255 251 250
159 214 77 104 70 261 235 266 264 247 249 234 240 210 206 207 215 265 260 272 285 301 321 317 314 316 317 318 316 312 309 305 297 291 286 284 286 278 275 267 264 254 250 246 249 247 249 247 246
208 139 133 250 197 231 231 271 244 205 195 196 203 219 222 218 218 251 261 260 281 303 316 311 315 315 318 317 317 312 309 303 301 298 292 289 288 285 281 275 273 266 256 242 242 245 245 252 263
146 204 112 355 280 228 272 244 203 205 181 195 212 218 228 229 225 245 267 266 293 310 318 316 318 320 319 324 323 318 314 308 305 302 301 298 293 290 286 278 270 262 262 235 237 241 241 244 247
242 221 191 212 187 249 324 267 173 229 205 212 229 232 236 239 230 242 264 281 303 309 312 318 313 320 324 327 326 323 319 315 314 309 303 301 296 291 284 282 273 263 261 242 235 239 241 242 236